This demonstration page uses our WeatherBlox Daily Observations layout. Learn more.

Hourly Observations for July 7, 2017

Temp ( °F °C ) Dew Point ( °F °C ) Humidity (%) Winds ( mph kmh ) Pressure ( in mb ) Visibility ( mi km ) Precip ( " mm )
12:02 am 00:02 Clear with Mist and Fog 68 20 68 20 100 100 Calm 29.97 1015 1.75 2.816345 0 0
12:09 am 00:09 Clear with Mist and Fog 68 20 68 20 100 100 Calm 29.97 1015 1.25 2.011675 0 0
12:13 am 00:13 Clear with Mist and Fog 67 19.4 67 19.4 100 100 Calm 29.97 1015 2 3.21868 0 0
12:22 am 00:22 Mostly Clear with Mist and Fog 67 19.4 67 19.4 100 100 Calm 29.97 1015 2 3.21868 0 0
12:29 am 00:29 Mostly Cloudy with Mist and Fog 67 19.4 67 19.4 100 100 Calm 29.97 1015 0.75 1.207005 0 0
12:53 am 00:53 Mostly Cloudy with Mist and Fog 67 19.4 67 19.4 100 100 WNW 3 6 29.98 1015 1 1.60934 0 0
12:55 am 00:55 Partly Cloudy with Mist and Fog 67 19.4 67 19.4 100 100 Calm 30 1016 1.75 2.816345 0 0
1:02 am 01:02 Mostly Clear with Mist and Fog 67 19.4 67 19.4 100 100 Calm 30 1016 3 4.82802 0 0
1:15 am 01:15 Mostly Cloudy with Mist and Fog 67 19.4 67 19.4 100 100 NW 3 6 30 1016 6 9.65604 0 0
1:24 am 01:24 Mostly Cloudy with Mist and Fog 68 20 68 20 100 100 Calm 30 1016 1.75 2.816345 0 0
1:31 am 01:31 Cloudy with Mist and Fog 67 19.4 67 19.4 100 100 Calm 30 1016 1.5 2.41401 0 0
1:43 am 01:43 Mostly Cloudy with Fog 68 20 68 20 100 100 Calm 30 1016 0.25 0.402335 0 0
1:53 am 01:53 Mostly Cloudy with Fog 69 20.6 69 20.6 100 100 Calm 29.98 1015 0.25 0.402335 0 0
2:53 am 02:53 Mostly Cloudy with Fog 69 20.6 69 20.6 100 100 Calm 29.98 1015 0.25 0.402335 0 0
3:53 am 03:53 Mostly Cloudy with Mist and Fog 68 20 68 20 100 100 Calm 29.96 1015 1.75 2.816345 0 0
3:58 am 03:58 Mostly Cloudy with Mist and Fog 68 20 68 20 100 100 Calm 29.97 1015 3 4.82802 0 0
4:08 am 04:08 Partly Cloudy with Mist and Fog 67 19.4 67 19.4 100 100 Calm 29.97 1015 3 4.82802 0 0
4:19 am 04:19 Clear with Mist and Fog 67 19.4 67 19.4 100 100 Calm 29.97 1015 1.75 2.816345 0 0
4:25 am 04:25 Clear with Mist and Fog 67 19.4 67 19.4 100 100 Calm 29.97 1015 0.75 1.207005 0 0
4:43 am 04:43 Clear with Mist and Fog 66 18.9 66 18.9 100 100 Calm 29.97 1015 1.75 2.816345 0 0
4:50 am 04:50 Clear with Mist and Fog 66 19 66 19 100 100 Calm 29.97 1015 2 3.21868 0 0
4:53 am 04:53 Clear with Mist and Fog 66 18.9 66 18.9 100 100 Calm 29.96 1015 1.5 2.41401 0 0
4:58 am 04:58 Mostly Cloudy with Mist and Fog 66 18.9 66 18.9 100 100 Calm 29.97 1015 1 1.60934 0 0
5:13 am 05:13 Partly Cloudy with Mist and Fog 66 18.9 66 18.9 100 100 Calm 29.97 1015 1.25 2.011675 0 0
5:16 am 05:16 Mostly Cloudy with Mist and Fog 66 18.9 66 18.9 100 100 Calm 29.97 1015 0.75 1.207005 0 0
5:28 am 05:28 Mostly Cloudy with Mist and Fog 66 18.9 66 18.9 100 100 Calm 29.97 1015 1 1.60934 0 0
5:32 am 05:32 Partly Cloudy with Mist and Fog 66 18.9 66 18.9 100 100 Calm 29.97 1015 2 3.21868 0 0
5:35 am 05:35 Mostly Clear with Mist and Fog 66 18.9 66 18.9 100 100 Calm 29.97 1015 1.5 2.41401 0 0
5:42 am 05:42 Mostly Clear with Mist and Fog 66 18.9 66 18.9 100 100 Calm 29.97 1015 1.75 2.816345 0 0
5:44 am 05:44 Mostly Clear with Mist and Fog 66 18.9 66 18.9 100 100 Calm 29.97 1015 3 4.82802 0 0
5:53 am 05:53 Clear with Mist and Fog 66 18.9 66 18.9 100 100 Calm 29.96 1015 2.5 4.02335 0 0
6:10 am 06:10 Mostly Cloudy with Mist and Fog 66 18.9 66 18.9 100 100 Calm 29.97 1015 1 1.60934 0 0
6:17 am 06:17 Mostly Clear with Mist and Fog 66 18.9 66 18.9 100 100 Calm 29.97 1015 1.75 2.816345 0 0
6:23 am 06:23 Sunny with Mist and Fog 66 18.9 66 18.9 100 100 Calm 29.97 1015 3 4.82802 0 0
6:46 am 06:46 Sunny with Mist and Fog 65 18.3 65 18.3 100 100 Calm 30 1016 2.5 4.02335 0 0
6:50 am 06:50 Sunny with Mist and Fog 66 19 66 19 100 100 Calm 30 1016 1.5 2.41401 0 0
6:53 am 06:53 Sunny with Mist and Fog 66 18.9 66 18.9 100 100 Calm 29.98 1015 1.5 2.41401 0 0
6:59 am 06:59 Sunny with Mist and Fog 66 18.9 66 18.9 100 100 Calm 30 1016 2 3.21868 0 0
7:07 am 07:07 Sunny with Mist and Fog 67 19.4 67 19.4 100 100 Calm 30 1016 3 4.82802 0 0
7:53 am 07:53 Sunny 71 21.7 70 21.1 96 96 Calm 29.97 1015 10 16.0934 0 0
8:53 am 08:53 Sunny 75 23.9 72 22.2 90 90 WSW 6 9 29.97 1015 10 16.0934 0 0
9:53 am 09:53 Sunny 78 25.6 72 22.2 82 82 SW 7 11 29.96 1015 10 16.0934 0 0
10:53 am 10:53 Sunny 82 27.8 74 23.3 77 77 WSW 7 11 29.95 1014 10 16.0934 0 0
11:53 am 11:53 Sunny 85 29.4 75 23.9 72 72 SW 10 17 29.94 1014 10 16.0934 0 0
12:53 pm 12:53 Partly Cloudy 87 30.6 73 22.8 63 63 SSW 10 17 29.93 1013 10 16.0934 0 0
1:53 pm 13:53 Mostly Sunny 87 30.6 69 20.6 55 55 W 14 22 29.92 1013 10 16.0934 0 0
2:53 pm 14:53 Mostly Sunny 87 30.6 71 21.7 59 59 SW 12 19 29.89 1012 10 16.0934 0 0
3:53 pm 15:53 Mostly Cloudy 83 28.3 71 21.7 67 67 NNE 8 13 29.87 1012 10 16.0934 0 0
4:53 pm 16:53 Mostly Cloudy 84 28.9 73 22.8 70 70 Calm 29.85 1011 10 16.0934 0 0
5:11 pm 17:11 Mostly Cloudy with Nearby Thunderstorms 83 28.3 72 22.2 70 70 Calm 29.85 1011 10 16.0934 0 0
5:53 pm 17:53 Windy with Storms Likely 73 22.8 67 19.4 81 81 NNW 22 35 29.87 1011 10 16.0934 0 0.0254
6:03 pm 18:03 Cloudy with Thunderstorms 68 20 66 18.9 93 93 N 30 48 29.97 1015 1.5 2.41401 0.23 5.842
6:06 pm 18:06 Cloudy with Heavy Thunderstorms 65 18.3 65 18.3 100 100 N 23 37 29.94 1014 0.75 1.207005 0.46 11.684
6:08 pm 18:08 Cloudy with Heavy Thunderstorms 65 18.3 65 18.3 100 100 NNE 22 35 29.94 1014 0.5 0.80467 0.59 14.986
6:15 pm 18:15 Cloudy with Heavy Thunderstorms 65 18.3 65 18.3 100 100 NE 12 19 29.94 1014 1 1.60934 0.68 17.272
6:19 pm 18:19 Cloudy with Heavy Thunderstorms 66 18.9 66 18.9 100 100 NE 9 15 29.94 1014 2.5 4.02335 0.69 17.526
6:26 pm 18:26 Cloudy with Light Thunderstorms 67 19.4 67 19.4 100 100 NE 7 11 29.94 1014 6 9.65604 0.7 17.78
6:42 pm 18:42 Cloudy with Nearby Thunderstorms 67 19.4 67 19.4 100 100 Calm 29.97 1015 4 6.43736 0.74 18.796
6:53 pm 18:53 Cloudy with Light Thunderstorms 67 19.4 67 19.4 100 100 Calm 29.94 1014 5 8.0467 0.77 19.558
7:11 pm 19:11 Mostly Cloudy with Nearby Thunderstorms 67 19.4 65 18.3 93 93 Calm 29.94 1014 9 14.48406 0.01 0.254
7:29 pm 19:29 Mostly Cloudy with Light Rain 66 18.9 66 18.9 100 100 WSW 6 9 29.94 1014 10 16.0934 0.01 0.254
7:53 pm 19:53 Mostly Cloudy with Light Rain 67 19.4 66 18.9 97 97 Calm 29.9 1013 10 16.0934 0.01 0.254
8:53 pm 20:53 Partly Cloudy with Light Rain 67 19.4 66 18.9 97 97 VRB 3 6 29.83 1010 10 16.0934 0.06 1.524
9:53 pm 21:53 Mostly Clear 67 19.4 66 18.9 97 97 Calm 29.87 1011 10 16.0934 0 0.0254
10:53 pm 22:53 Clear 66 18.9 66 18.9 100 100 Calm 29.89 1012 10 16.0934 0 0
11:30 pm 23:30 Partly Cloudy 66 18.9 66 18.9 100 100 Calm 29.91 1013 9 14.48406 0 0
11:41 pm 23:41 Mostly Cloudy 67 19.4 66 18.9 97 97 Calm 29.94 1014 10 16.0934 0 0
11:53 pm 23:53 Cloudy 67 19.4 67 19.4 100 100 W 3 6 29.92 1013 10 16.0934 0 0

Powered by AerisWeather